Time,TemperatureF,DewpointF,PressureIn,WindDirection,WindDirectionDegrees,WindSpeedMPH,WindSpeedGustMPH,Humidity,HourlyPrecipIn,Conditions,Clouds,dailyrainin,SoftwareType,DateUTC
2013-11-22 00:00:00,47.6,41.8,30.37,East,82,0.0,0.0,80,0.00,,,0.00,WUHU216DAVISVP2,2013-11-22 05:00:00,
2013-11-22 00:01:00,47.6,41.8,30.37,East,82,0.0,0.0,80,0.00,,,0.00,WUHU216DAVISVP2,2013-11-22 05:01:00,
2013-11-22 00:06:00,47.9,42.0,30.37,East,82,0.0,0.0,80,0.00,,,0.00,WUHU216DAVISVP2,2013-11-22 05:06:00,
2013-11-22 00:11:00,48.0,42.2,30.37,East,82,0.0,0.0,80,0.00,,,0.00,WUHU216DAVISVP2,2013-11-22 05:11:00,
2013-11-22 00:16:00,48.0,42.2,30.37,East,82,0.0,0.0,80,0.00,,,0.00,WUHU216DAVISVP2,2013-11-22 05:16:00,
2013-11-22 00:21:00,48.0,42.1,30.36,East,82,0.0,0.0,80,0.00,,,0.00,WUHU216DAVISVP2,2013-11-22 05:21:00,
2013-11-22 00:57:00,48.2,43.3,30.34,East,82,0.0,0.0,83,0.00,,,0.00,WUHU216DAVISVP2,2013-11-22 05:57:00,
2013-11-22 01:02:00,48.5,43.6,30.34,East,82,0.0,0.0,83,0.00,,,0.00,WUHU216DAVISVP2,2013-11-22 06:02:00,
2013-11-22 01:07:00,48.5,43.6,30.35,East,82,0.0,0.0,83,0.00,,,0.00,WUHU216DAVISVP2,2013-11-22 06:07:00,
2013-11-22 01:12:00,48.5,43.6,30.35,East,82,0.0,0.0,83,0.00,,,0.00,WUHU216DAVISVP2,2013-11-22 06:12:00,
2013-11-22 02:02:00,49.6,45.0,30.34,East,82,0.0,0.0,84,0.00,,,0.00,WUHU216DAVISVP2,2013-11-22 07:02:00,
2013-11-22 02:07:00,49.6,45.0,30.34,East,82,0.0,0.0,84,0.00,,,0.00,WUHU216DAVISVP2,2013-11-22 07:07:00,
2013-11-22 02:12:00,49.6,45.0,30.34,East,82,0.0,0.0,84,0.00,,,0.00,WUHU216DAVISVP2,2013-11-22 07:12:00,
2013-11-22 02:17:00,49.5,44.9,30.34,East,82,0.0,0.0,84,0.00,,,0.00,WUHU216DAVISVP2,2013-11-22 07:17:00,
2013-11-22 02:22:00,49.5,44.9,30.34,East,82,0.0,0.0,84,0.00,,,0.00,WUHU216DAVISVP2,2013-11-22 07:22:00,
2013-11-22 02:27:00,49.5,44.9,30.34,East,82,0.0,0.0,84,0.00,,,0.00,WUHU216DAVISVP2,2013-11-22 07:27:00,
2013-11-22 02:32:00,49.5,44.9,30.34,East,82,0.0,0.0,84,0.00,,,0.00,WUHU216DAVISVP2,2013-11-22 07:32:00,
2013-11-22 02:37:00,49.6,45.0,30.34,East,82,0.0,0.0,84,0.00,,,0.00,WUHU216DAVISVP2,2013-11-22 07:37:00,
2013-11-22 02:42:00,49.6,45.0,30.34,East,82,0.0,0.0,84,0.00,,,0.00,WUHU216DAVISVP2,2013-11-22 07:42:00,
2013-11-22 03:34:00,49.2,44.6,30.32,East,82,0.0,0.0,84,0.00,,,0.00,WUHU216DAVISVP2,2013-11-22 08:34:00,
2013-11-22 03:39:00,49.2,44.6,30.32,East,82,0.0,0.0,84,0.00,,,0.00,WUHU216DAVISVP2,2013-11-22 08:39:00,
2013-11-22 03:44:00,48.8,44.2,30.32,East,82,0.0,0.0,84,0.00,,,0.00,WUHU216DAVISVP2,2013-11-22 08:44:00,
2013-11-22 03:49:00,48.8,44.2,30.32,East,82,0.0,0.0,84,0.00,,,0.00,WUHU216DAVISVP2,2013-11-22 08:49:00,
2013-11-22 03:54:00,48.8,44.2,30.32,East,82,0.0,0.0,84,0.00,,,0.00,WUHU216DAVISVP2,2013-11-22 08:54:00,
2013-11-22 03:59:00,48.8,44.2,30.32,East,82,0.0,0.0,84,0.00,,,0.00,WUHU216DAVISVP2,2013-11-22 08:59:00,
2013-11-22 04:05:00,48.8,44.2,30.32,East,82,0.0,0.0,84,0.00,,,0.00,WUHU216DAVISVP2,2013-11-22 09:05:00,
2013-11-22 04:10:00,49.1,44.5,30.32,East,82,0.0,0.0,84,0.00,,,0.00,WUHU216DAVISVP2,2013-11-22 09:10:00,
2013-11-22 04:15:00,49.1,44.5,30.32,East,82,0.0,0.0,84,0.00,,,0.00,WUHU216DAVISVP2,2013-11-22 09:15:00,
2013-11-22 04:20:00,49.1,44.5,30.32,East,82,0.0,0.0,84,0.00,,,0.00,WUHU216DAVISVP2,2013-11-22 09:20:00,
2013-11-22 04:25:00,49.1,44.5,30.32,East,82,0.0,0.0,84,0.00,,,0.00,WUHU216DAVISVP2,2013-11-22 09:25:00,
2013-11-22 04:30:00,49.1,44.8,30.32,East,82,0.0,0.0,85,0.00,,,0.00,WUHU216DAVISVP2,2013-11-22 09:30:00,
2013-11-22 04:35:00,49.1,44.8,30.31,East,82,0.0,0.0,85,0.00,,,0.00,WUHU216DAVISVP2,2013-11-22 09:35:00,
2013-11-22 04:40:00,49.1,44.8,30.31,East,82,0.0,0.0,85,0.00,,,0.00,WUHU216DAVISVP2,2013-11-22 09:40:00,
2013-11-22 04:45:00,49.6,45.3,30.31,East,82,0.0,0.0,85,0.00,,,0.00,WUHU216DAVISVP2,2013-11-22 09:45:00,
2013-11-22 04:50:00,49.6,45.3,30.31,East,82,0.0,0.0,85,0.00,,,0.00,WUHU216DAVISVP2,2013-11-22 09:50:00,
2013-11-22 04:55:00,49.6,45.3,30.31,East,82,0.0,0.0,85,0.00,,,0.00,WUHU216DAVISVP2,2013-11-22 09:55:00,
2013-11-22 05:00:00,49.6,45.3,30.31,East,82,0.0,0.0,85,0.00,,,0.00,WUHU216DAVISVP2,2013-11-22 10:00:00,
2013-11-22 05:05:00,49.6,45.3,30.30,East,82,0.0,0.0,85,0.00,,,0.00,WUHU216DAVISVP2,2013-11-22 10:05:00,
2013-11-22 05:10:00,49.6,45.3,30.30,East,82,0.0,0.0,85,0.00,,,0.00,WUHU216DAVISVP2,2013-11-22 10:10:00,
2013-11-22 05:15:00,49.6,45.3,30.30,East,82,0.0,0.0,85,0.00,,,0.00,WUHU216DAVISVP2,2013-11-22 10:15:00,
2013-11-22 05:20:00,49.6,45.3,30.30,East,82,0.0,0.0,85,0.00,,,0.00,WUHU216DAVISVP2,2013-11-22 10:20:00,
2013-11-22 05:46:00,48.2,44.2,30.30,East,82,0.0,0.0,86,0.00,,,0.00,WUHU216DAVISVP2,2013-11-22 10:46:00,
2013-11-22 05:51:00,48.0,44.0,30.30,East,82,0.0,0.0,86,0.00,,,0.00,WUHU216DAVISVP2,2013-11-22 10:51:00,
2013-11-22 05:56:00,47.9,43.9,30.30,East,82,0.0,0.0,86,0.00,,,0.00,WUHU216DAVISVP2,2013-11-22 10:56:00,
2013-11-22 06:01:00,47.9,43.9,30.30,East,82,0.0,0.0,86,0.00,,,0.00,WUHU216DAVISVP2,2013-11-22 11:01:00,
2013-11-22 06:06:00,47.9,43.9,30.30,East,82,0.0,0.0,86,0.00,,,0.00,WUHU216DAVISVP2,2013-11-22 11:06:00,
2013-11-22 06:11:00,47.9,43.9,30.30,East,82,0.0,0.0,86,0.00,,,0.00,WUHU216DAVISVP2,2013-11-22 11:11:00,
2013-11-22 06:16:00,47.9,43.9,30.30,East,82,0.0,0.0,86,0.00,,,0.00,WUHU216DAVISVP2,2013-11-22 11:16:00,
2013-11-22 06:21:00,47.9,43.9,30.29,East,82,0.0,0.0,86,0.00,,,0.00,WUHU216DAVISVP2,2013-11-22 11:21:00,
2013-11-22 06:26:00,48.2,44.2,30.29,East,82,0.0,0.0,86,0.00,,,0.00,WUHU216DAVISVP2,2013-11-22 11:26:00,
2013-11-22 06:31:00,48.2,44.2,30.29,East,82,0.0,0.0,86,0.00,,,0.00,WUHU216DAVISVP2,2013-11-22 11:31:00,
2013-11-22 06:36:00,48.0,44.0,30.29,East,82,0.0,0.0,86,0.00,,,0.00,WUHU216DAVISVP2,2013-11-22 11:36:00,
2013-11-22 06:41:00,47.9,43.9,30.29,East,82,0.0,0.0,86,0.00,,,0.00,WUHU216DAVISVP2,2013-11-22 11:41:00,
2013-11-22 06:46:00,47.9,43.9,30.29,East,82,0.0,0.0,86,0.00,,,0.00,WUHU216DAVISVP2,2013-11-22 11:46:00,
2013-11-22 06:51:00,47.6,43.6,30.29,East,82,0.0,0.0,86,0.00,,,0.00,WUHU216DAVISVP2,2013-11-22 11:51:00,
2013-11-22 06:56:00,47.6,43.6,30.29,East,82,0.0,0.0,86,0.00,,,0.00,WUHU216DAVISVP2,2013-11-22 11:56:00,
2013-11-22 07:01:00,47.6,43.6,30.29,East,82,0.0,0.0,86,0.00,,,0.00,WUHU216DAVISVP2,2013-11-22 12:01:00,
2013-11-22 08:49:00,51.0,47.2,30.29,East,82,0.0,0.0,87,0.00,,,0.00,WUHU216DAVISVP2,2013-11-22 13:49:00,
2013-11-22 08:56:00,51.0,47.2,30.29,East,82,0.0,0.0,87,0.00,,,0.00,WUHU216DAVISVP2,2013-11-22 13:56:00,
2013-11-22 09:04:00,52.0,48.2,30.29,East,80,0.0,0.0,87,0.00,,,0.00,WUHU216DAVISVP2,2013-11-22 14:04:00,
2013-11-22 09:14:00,52.0,48.2,30.29,East,79,0.0,0.0,87,0.00,,,0.00,WUHU216DAVISVP2,2013-11-22 14:14:00,
2013-11-22 09:22:00,52.0,48.2,30.29,NNW,332,0.0,0.0,87,0.00,,,0.00,WUHU216DAVISVP2,2013-11-22 14:22:00,
2013-11-22 09:32:00,52.0,47.9,30.29,WNW,302,0.0,0.0,86,0.00,,,0.00,WUHU216DAVISVP2,2013-11-22 14:32:00,
2013-11-22 09:37:00,52.0,47.9,30.29,NW,306,0.0,0.0,86,0.00,,,0.00,WUHU216DAVISVP2,2013-11-22 14:37:00,
2013-11-22 09:42:00,52.0,47.9,30.29,NW,306,0.0,0.0,86,0.00,,,0.00,WUHU216DAVISVP2,2013-11-22 14:42:00,
2013-11-22 11:17:00,60.2,54.1,30.26,WSW,244,0.0,0.0,80,0.00,,,0.00,WUHU216DAVISVP2,2013-11-22 16:17:00,
2013-11-22 11:22:00,60.2,54.1,30.26,NNW,328,0.0,0.0,80,0.00,,,0.00,WUHU216DAVISVP2,2013-11-22 16:22:00,
2013-11-22 11:27:00,60.2,54.1,30.26,NNW,328,0.0,0.0,80,0.00,,,0.00,WUHU216DAVISVP2,2013-11-22 16:27:00,
2013-11-22 11:32:00,60.2,53.7,30.26,NW,316,0.0,0.0,79,0.00,,,0.00,WUHU216DAVISVP2,2013-11-22 16:32:00,
2013-11-22 11:37:00,60.2,53.7,30.25,SSE,152,0.0,0.0,79,0.00,,,0.00,WUHU216DAVISVP2,2013-11-22 16:37:00,
2013-11-22 11:42:00,60.2,53.7,30.25,SE,134,0.0,0.0,79,0.00,,,0.00,WUHU216DAVISVP2,2013-11-22 16:42:00,
2013-11-22 11:47:00,60.4,53.9,30.25,SE,134,0.0,0.0,79,0.00,,,0.00,WUHU216DAVISVP2,2013-11-22 16:47:00,
2013-11-22 11:52:00,60.4,53.9,30.23,ESE,109,0.0,0.0,79,0.00,,,0.00,WUHU216DAVISVP2,2013-11-22 16:52:00,
2013-11-22 11:57:00,61.0,54.5,30.23,East,95,0.0,0.0,79,0.00,,,0.00,WUHU216DAVISVP2,2013-11-22 16:57:00,
2013-11-22 12:02:00,61.0,54.5,30.23,East,97,0.0,0.0,79,0.00,,,0.00,WUHU216DAVISVP2,2013-11-22 17:02:00,
2013-11-22 12:07:00,61.0,54.5,30.22,East,97,0.0,0.0,79,0.00,,,0.00,WUHU216DAVISVP2,2013-11-22 17:07:00,
2013-11-22 12:12:00,61.6,55.1,30.22,SE,136,0.0,0.0,79,0.00,,,0.00,WUHU216DAVISVP2,2013-11-22 17:12:00,
2013-11-22 12:17:00,61.8,55.3,30.22,South,172,0.0,0.0,79,0.00,,,0.00,WUHU216DAVISVP2,2013-11-22 17:17:00,
2013-11-22 12:22:00,62.1,54.9,30.21,SE,133,0.0,0.0,77,0.00,,,0.00,WUHU216DAVISVP2,2013-11-22 17:22:00,
2013-11-22 12:27:00,62.1,54.9,30.21,SE,133,0.0,0.0,77,0.00,,,0.00,WUHU216DAVISVP2,2013-11-22 17:27:00,
2013-11-22 13:55:00,66.0,57.6,30.16,NNE,25,0.0,0.0,74,0.00,,,0.00,WUHU216DAVISVP2,2013-11-22 18:55:00,
2013-11-22 14:00:00,66.0,57.6,30.16,SSW,199,0.0,0.0,74,0.00,,,0.00,WUHU216DAVISVP2,2013-11-22 19:00:00,
2013-11-22 14:05:00,66.9,58.5,30.14,SSE,167,0.0,0.0,74,0.00,,,0.00,WUHU216DAVISVP2,2013-11-22 19:05:00,
2013-11-22 14:10:00,66.9,58.5,30.14,SSE,167,0.0,0.0,74,0.00,,,0.00,WUHU216DAVISVP2,2013-11-22 19:10:00,
2013-11-22 14:16:00,66.9,58.5,30.14,NW,326,0.0,0.0,74,0.00,,,0.00,WUHU216DAVISVP2,2013-11-22 19:16:00,
2013-11-22 14:21:00,68.1,59.6,30.14,NE,37,0.0,0.0,74,0.00,,,0.00,WUHU216DAVISVP2,2013-11-22 19:21:00,
2013-11-22 14:26:00,68.3,59.8,30.14,WNW,296,0.0,0.0,74,0.00,,,0.00,WUHU216DAVISVP2,2013-11-22 19:26:00,
2013-11-22 14:31:00,68.3,59.8,30.14,NW,311,0.0,0.0,74,0.00,,,0.00,WUHU216DAVISVP2,2013-11-22 19:31:00,
2013-11-22 14:36:00,68.3,59.8,30.13,West,265,0.0,0.0,74,0.00,,,0.00,WUHU216DAVISVP2,2013-11-22 19:36:00,
2013-11-22 14:41:00,68.3,59.8,30.13,SSE,167,0.0,0.0,74,0.00,,,0.00,WUHU216DAVISVP2,2013-11-22 19:41:00,
2013-11-22 14:46:00,68.8,60.3,30.13,SW,227,0.0,0.0,74,0.00,,,0.00,WUHU216DAVISVP2,2013-11-22 19:46:00,
2013-11-22 14:51:00,68.8,60.3,30.12,ENE,66,0.0,0.0,74,0.00,,,0.00,WUHU216DAVISVP2,2013-11-22 19:51:00,
2013-11-22 14:56:00,68.8,60.3,30.12,ENE,66,0.0,0.0,74,0.00,,,0.00,WUHU216DAVISVP2,2013-11-22 19:56:00,
2013-11-22 15:01:00,68.8,60.3,30.12,SSE,165,0.0,0.0,74,0.00,,,0.00,WUHU216DAVISVP2,2013-11-22 20:01:00,
2013-11-22 15:06:00,68.8,60.3,30.13,East,100,0.0,0.0,74,0.00,,,0.00,WUHU216DAVISVP2,2013-11-22 20:06:00,
2013-11-22 15:11:00,68.3,58.7,30.13,North,0,0.0,0.0,71,0.00,,,0.00,WUHU216DAVISVP2,2013-11-22 20:11:00,
2013-11-22 15:16:00,68.3,58.7,30.13,North,6,0.0,0.0,71,0.00,,,0.00,WUHU216DAVISVP2,2013-11-22 20:16:00,
2013-11-22 15:21:00,68.3,58.7,30.13,North,6,0.0,0.0,71,0.00,,,0.00,WUHU216DAVISVP2,2013-11-22 20:21:00,
2013-11-22 15:26:00,68.3,58.7,30.13,SSW,196,0.0,0.0,71,0.00,,,0.00,WUHU216DAVISVP2,2013-11-22 20:26:00,
2013-11-22 15:31:00,68.3,58.7,30.13,South,175,0.0,0.0,71,0.00,,,0.00,WUHU216DAVISVP2,2013-11-22 20:31:00,
2013-11-22 15:36:00,68.4,58.8,30.12,WSW,250,0.0,0.0,71,0.00,,,0.00,WUHU216DAVISVP2,2013-11-22 20:36:00,
2013-11-22 15:41:00,68.4,58.8,30.12,WSW,250,0.0,0.0,71,0.00,,,0.00,WUHU216DAVISVP2,2013-11-22 20:41:00,
2013-11-22 15:46:00,68.4,58.8,30.12,NW,325,0.0,0.0,71,0.00,,,0.00,WUHU216DAVISVP2,2013-11-22 20:46:00,
2013-11-22 15:51:00,68.4,58.8,30.12,SSW,206,0.0,0.0,71,0.00,,,0.00,WUHU216DAVISVP2,2013-11-22 20:51:00,
2013-11-22 15:56:00,68.3,58.7,30.12,ESE,102,0.0,0.0,71,0.00,,,0.00,WUHU216DAVISVP2,2013-11-22 20:56:00,
2013-11-22 16:01:00,68.3,58.7,30.12,North,0,0.0,0.0,71,0.00,,,0.00,WUHU216DAVISVP2,2013-11-22 21:01:00,
2013-11-22 16:06:00,68.3,58.7,30.12,North,0,0.0,0.0,71,0.00,,,0.00,WUHU216DAVISVP2,2013-11-22 21:06:00,
2013-11-22 16:11:00,68.3,58.7,30.12,North,0,0.0,0.0,71,0.00,,,0.00,WUHU216DAVISVP2,2013-11-22 21:11:00,
2013-11-22 16:16:00,68.3,58.7,30.12,North,0,0.0,0.0,71,0.00,,,0.00,WUHU216DAVISVP2,2013-11-22 21:16:00,
2013-11-22 16:21:00,68.3,58.7,30.12,NNE,17,0.0,0.0,71,0.00,,,0.00,WUHU216DAVISVP2,2013-11-22 21:21:00,
2013-11-22 16:26:00,68.3,59.1,30.12,NNE,20,0.0,0.0,72,0.00,,,0.00,WUHU216DAVISVP2,2013-11-22 21:26:00,
2013-11-22 16:32:00,67.3,58.1,30.12,NNE,20,0.0,0.0,72,0.00,,,0.00,WUHU216DAVISVP2,2013-11-22 21:32:00,
2013-11-22 16:37:00,67.3,58.1,30.11,NNE,20,0.0,0.0,72,0.00,,,0.00,WUHU216DAVISVP2,2013-11-22 21:37:00,
2013-11-22 16:43:00,67.3,58.1,30.11,NNE,20,0.0,0.0,72,0.00,,,0.00,WUHU216DAVISVP2,2013-11-22 21:43:00,
2013-11-22 16:48:00,66.1,57.0,30.11,NNE,20,0.0,0.0,72,0.00,,,0.00,WUHU216DAVISVP2,2013-11-22 21:48:00,
2013-11-22 16:54:00,65.8,57.4,30.10,NNE,20,0.0,0.0,74,0.00,,,0.00,WUHU216DAVISVP2,2013-11-22 21:54:00,
2013-11-22 16:59:00,65.8,57.4,30.10,North,10,0.0,0.0,74,0.00,,,0.00,WUHU216DAVISVP2,2013-11-22 21:59:00,
2013-11-22 17:05:00,65.0,56.6,30.10,North,10,0.0,0.0,74,0.00,,,0.00,WUHU216DAVISVP2,2013-11-22 22:05:00,
2013-11-22 17:10:00,65.0,57.0,30.10,North,10,0.0,0.0,75,0.00,,,0.00,WUHU216DAVISVP2,2013-11-22 22:10:00,
2013-11-22 17:15:00,65.0,57.0,30.10,North,10,0.0,0.0,75,0.00,,,0.00,WUHU216DAVISVP2,2013-11-22 22:15:00,
2013-11-22 17:36:00,63.1,55.9,30.10,ENE,69,0.0,0.0,77,0.00,,,0.00,WUHU216DAVISVP2,2013-11-22 22:36:00,
2013-11-22 17:41:00,63.1,55.9,30.10,ENE,69,0.0,0.0,77,0.00,,,0.00,WUHU216DAVISVP2,2013-11-22 22:41:00,
2013-11-22 17:46:00,62.6,55.4,30.10,ENE,69,0.0,0.0,77,0.00,,,0.00,WUHU216DAVISVP2,2013-11-22 22:46:00,
2013-11-22 17:51:00,62.6,55.4,30.10,ENE,69,0.0,0.0,77,0.00,,,0.00,WUHU216DAVISVP2,2013-11-22 22:51:00,
2013-11-22 18:15:00,61.8,55.6,30.10,ENE,69,0.0,0.0,80,0.00,,,0.00,WUHU216DAVISVP2,2013-11-22 23:15:00,
2013-11-22 18:20:00,61.8,55.6,30.09,ENE,69,0.0,0.0,80,0.00,,,0.00,WUHU216DAVISVP2,2013-11-22 23:20:00,
2013-11-22 18:25:00,61.8,55.6,30.09,ENE,69,0.0,0.0,80,0.00,,,0.00,WUHU216DAVISVP2,2013-11-22 23:25:00,
2013-11-22 18:30:00,61.8,55.6,30.09,ENE,69,0.0,0.0,80,0.00,,,0.00,WUHU216DAVISVP2,2013-11-22 23:30:00,
2013-11-22 18:35:00,61.8,55.6,30.09,ENE,69,0.0,0.0,80,0.00,,,0.00,WUHU216DAVISVP2,2013-11-22 23:35:00,
2013-11-22 18:40:00,61.8,55.6,30.09,ENE,69,0.0,0.0,80,0.00,,,0.00,WUHU216DAVISVP2,2013-11-22 23:40:00,
2013-11-22 18:45:00,61.8,55.6,30.09,SE,128,0.0,0.0,80,0.00,,,0.00,WUHU216DAVISVP2,2013-11-22 23:45:00,
2013-11-22 18:50:00,62.3,56.1,30.08,SE,128,0.0,0.0,80,0.00,,,0.00,WUHU216DAVISVP2,2013-11-22 23:50:00,
2013-11-22 18:55:00,62.4,56.2,30.08,SE,128,0.0,0.0,80,0.00,,,0.00,WUHU216DAVISVP2,2013-11-22 23:55:00,
2013-11-22 19:00:00,62.4,56.2,30.08,SE,128,0.0,0.0,80,0.00,,,0.00,WUHU216DAVISVP2,2013-11-23 00:00:00,
2013-11-22 19:05:00,62.4,56.2,30.08,West,267,0.0,0.0,80,0.00,,,0.00,WUHU216DAVISVP2,2013-11-23 00:05:00,
2013-11-22 19:10:00,62.4,56.2,30.08,West,267,0.0,0.0,80,0.00,,,0.00,WUHU216DAVISVP2,2013-11-23 00:10:00,
2013-11-22 19:16:00,62.4,56.2,30.08,WSW,253,0.0,0.0,80,0.00,,,0.00,WUHU216DAVISVP2,2013-11-23 00:16:00,
2013-11-22 19:21:00,62.4,56.2,30.08,South,178,0.0,0.0,80,0.00,,,0.00,WUHU216DAVISVP2,2013-11-23 00:21:00,
2013-11-22 19:26:00,62.7,56.5,30.08,South,172,0.0,0.0,80,0.00,,,0.00,WUHU216DAVISVP2,2013-11-23 00:26:00,
2013-11-22 19:31:00,62.7,56.5,30.08,North,356,0.0,0.0,80,0.00,,,0.00,WUHU216DAVISVP2,2013-11-23 00:31:00,
2013-11-22 19:36:00,63.1,57.6,30.08,ESE,103,0.0,0.0,82,0.00,,,0.00,WUHU216DAVISVP2,2013-11-23 00:36:00,
2013-11-22 19:41:00,63.1,57.6,30.08,ESE,103,0.0,0.0,82,0.00,,,0.00,WUHU216DAVISVP2,2013-11-23 00:41:00,
2013-11-22 21:04:00,63.5,57.6,30.05,ENE,61,0.0,0.0,81,0.00,,,0.00,WUHU216DAVISVP2,2013-11-23 02:04:00,
2013-11-22 21:09:00,63.5,57.6,30.05,ENE,61,0.0,0.0,81,0.00,,,0.00,WUHU216DAVISVP2,2013-11-23 02:09:00,
2013-11-22 21:15:00,63.7,57.8,30.05,NNW,337,0.0,0.0,81,0.00,,,0.00,WUHU216DAVISVP2,2013-11-23 02:15:00,
2013-11-22 21:20:00,63.7,57.8,30.05,NNW,343,0.0,0.0,81,0.00,,,0.00,WUHU216DAVISVP2,2013-11-23 02:20:00,
2013-11-22 21:25:00,63.7,57.8,30.05,ENE,68,0.0,0.0,81,0.00,,,0.00,WUHU216DAVISVP2,2013-11-23 02:25:00,
2013-11-22 21:30:00,63.7,57.8,30.05,ENE,68,0.0,0.0,81,0.00,,,0.00,WUHU216DAVISVP2,2013-11-23 02:30:00,
2013-11-22 21:35:00,63.7,57.8,30.04,ESE,102,0.0,0.0,81,0.00,,,0.00,WUHU216DAVISVP2,2013-11-23 02:35:00,
2013-11-22 21:40:00,63.7,57.8,30.04,East,100,0.0,0.0,81,0.00,,,0.00,WUHU216DAVISVP2,2013-11-23 02:40:00,
2013-11-22 21:45:00,63.7,57.8,30.04,SE,130,0.0,0.0,81,0.00,,,0.00,WUHU216DAVISVP2,2013-11-23 02:45:00,
2013-11-22 21:50:00,63.7,57.8,30.05,NNW,336,0.0,0.0,81,0.00,,,0.00,WUHU216DAVISVP2,2013-11-23 02:50:00,
2013-11-22 21:55:00,63.7,57.8,30.05,NNW,336,0.0,0.0,81,0.00,,,0.00,WUHU216DAVISVP2,2013-11-23 02:55:00,
2013-11-22 22:00:00,63.7,57.8,30.05,West,280,0.0,0.0,81,0.00,,,0.00,WUHU216DAVISVP2,2013-11-23 03:00:00,
2013-11-22 22:05:00,63.7,57.8,30.05,NW,318,0.0,0.0,81,0.00,,,0.00,WUHU216DAVISVP2,2013-11-23 03:05:00,
2013-11-22 22:10:00,63.7,57.8,30.05,NW,319,0.0,0.0,81,0.00,,,0.00,WUHU216DAVISVP2,2013-11-23 03:10:00,
2013-11-22 22:15:00,63.7,57.8,30.05,SE,140,0.0,0.0,81,0.00,,,0.00,WUHU216DAVISVP2,2013-11-23 03:15:00,
2013-11-22 22:20:00,63.7,57.8,30.05,SSE,160,0.0,0.0,81,0.00,,,0.00,WUHU216DAVISVP2,2013-11-23 03:20:00,
2013-11-22 22:25:00,63.5,57.6,30.05,ESE,113,0.0,0.0,81,0.00,,,0.00,WUHU216DAVISVP2,2013-11-23 03:25:00,
2013-11-22 22:30:00,63.5,57.6,30.05,ESE,113,0.0,0.0,81,0.00,,,0.00,WUHU216DAVISVP2,2013-11-23 03:30:00,
2013-11-22 22:35:00,63.5,57.6,30.05,ESE,113,0.0,0.0,81,0.00,,,0.00,WUHU216DAVISVP2,2013-11-23 03:35:00,
2013-11-22 22:40:00,63.5,57.6,30.05,ESE,113,0.0,0.0,81,0.00,,,0.00,WUHU216DAVISVP2,2013-11-23 03:40:00,
2013-11-22 22:45:00,63.5,57.6,30.05,ESE,113,0.0,0.0,81,0.00,,,0.00,WUHU216DAVISVP2,2013-11-23 03:45:00,
2013-11-22 22:50:00,63.4,57.5,30.06,ESE,113,0.0,0.0,81,0.00,,,0.00,WUHU216DAVISVP2,2013-11-23 03:50:00,
2013-11-22 22:55:00,63.4,57.5,30.06,ESE,113,0.0,0.0,81,0.00,,,0.00,WUHU216DAVISVP2,2013-11-23 03:55:00,
2013-11-22 23:00:00,63.4,57.5,30.06,ESE,113,0.0,0.0,81,0.00,,,0.00,WUHU216DAVISVP2,2013-11-23 04:00:00,
2013-11-22 23:45:00,63.5,59.6,30.05,NNE,16,0.0,0.0,87,0.00,,,0.00,WUHU216DAVISVP2,2013-11-23 04:45:00,
2013-11-22 23:50:00,63.5,59.6,30.05,NNE,16,0.0,0.0,87,0.00,,,0.00,WUHU216DAVISVP2,2013-11-23 04:50:00,
2013-11-22 23:55:00,63.7,59.8,30.05,NNE,16,0.0,0.0,87,0.00,,,0.00,WUHU216DAVISVP2,2013-11-23 04:55:00,